This is the latest recevied weather packets stored in our database for station/object KD9IXX-13. If no packets are shown the sender has not sent any weather packets the latest 10 day(s).
| Time | Temp. | Humidity | Pressure | Rain* | Wind** | Luminosity | Snow |
|---|---|---|---|---|---|---|---|
| 1777913103 | 23.33° C | 51% | 1003.8 hPa | 0 mm | - | 682 W/m² | - |
| 1777912802 | 22.78° C | 55% | 1003.9 hPa | 0 mm | - | 700 W/m² | - |
| 1777912501 | 22.78° C | 54% | 1004 hPa | 0 mm | - | 712 W/m² | - |
| 1777912202 | 22.78° C | 56% | 1004.1 hPa | 0 mm | - | 708 W/m² | - |
| 1777911902 | 22.22° C | 57% | 1004.3 hPa | 0 mm | - | 692 W/m² | - |
| 1777911602 | 22.78° C | 58% | 1004.2 hPa | 0 mm | - | 698 W/m² | - |
| 1777911302 | 22.22° C | 60% | 1004.2 hPa | 0 mm | - | 692 W/m² | - |
| 1777911002 | 22.22° C | 60% | 1004.4 hPa | 0 mm | - | 696 W/m² | - |
| 1777910702 | 22.22° C | 58% | 1004.3 hPa | 0 mm | - | 668 W/m² | - |
| 1777910402 | 22.22° C | 57% | 1004.6 hPa | 0 mm | - | 645 W/m² | - |
| 1777910102 | 21.67° C | 59% | 1004.8 hPa | 0 mm | - | 693 W/m² | - |
| 1777909803 | 22.22° C | 59% | 1004.5 hPa | 0 mm | - | 725 W/m² | - |
| 1777909502 | 21.67° C | 61% | 1004.5 hPa | 0 mm | - | 707 W/m² | - |
| 1777909202 | 21.67° C | 57% | 1004.6 hPa | 0 mm | - | 704 W/m² | - |
| 1777908902 | 21.11° C | 60% | 1004.6 hPa | 0 mm | - | 699 W/m² | - |
| 1777908602 | 21.11° C | 58% | 1004.7 hPa | 0 mm | - | 718 W/m² | - |
| 1777908303 | 21.11° C | 57% | 1004.9 hPa | 0 mm | - | 718 W/m² | - |
| 1777908002 | 21.11° C | 60% | 1005.1 hPa | 0 mm | - | 714 W/m² | - |
| 1777907702 | 21.11° C | 59% | 1005 hPa | 0 mm | - | 693 W/m² | - |
| 1777907402 | 20.56° C | 60% | 1005 hPa | 0 mm | - | 700 W/m² | - |
| 1777907102 | 20.56° C | 61% | 1005.1 hPa | 0 mm | - | 707 W/m² | - |
| 1777906802 | 20° C | 60% | 1005.4 hPa | 0 mm | - | 707 W/m² | - |
| 1777906502 | 20° C | 62% | 1005.3 hPa | 0 mm | - | 691 W/m² | - |
| 1777906202 | 20° C | 63% | 1005.3 hPa | 0 mm | - | 681 W/m² | - |
| 1777905902 | 19.44° C | 63% | 1005.3 hPa | 0 mm | - | 676 W/m² | - |
* Rain latest hour (hover to see other rain measurements)
** Current wind speed in m/s (hover to see current wind gust speed)